Year,Month,Day,Hour,Minute,Value (Times are PST for windgust in km/hr)
2020,03,15,00,00,11.30
2020,03,15,00,01,30.60
2020,03,15,00,02,37.00
2020,03,15,00,03,35.40
2020,03,15,00,04,37.00
2020,03,15,00,05,33.80
2020,03,15,00,06,22.50
2020,03,15,00,07,24.20
2020,03,15,00,08,20.90
2020,03,15,00,09,40.20
2020,03,15,00,10,24.20
2020,03,15,00,11,11.30
2020,03,15,00,12,25.70
2020,03,15,00,13,35.40
2020,03,15,00,14,29.00
2020,03,15,00,15,57.90
2020,03,15,00,16,37.00
2020,03,15,00,17,38.60
2020,03,15,00,18,27.40
2020,03,15,00,19,33.80
2020,03,15,00,20,40.20
2020,03,15,00,21,37.00
2020,03,15,00,22,35.40
2020,03,15,00,23,53.10
2020,03,15,00,24,20.90
2020,03,15,00,25,25.70
2020,03,15,00,26,29.00
2020,03,15,00,27,20.90
2020,03,15,00,28,27.40
2020,03,15,00,29,25.70
2020,03,15,00,30,43.50
2020,03,15,00,31,19.30
2020,03,15,00,32,54.70
2020,03,15,00,33,41.80
2020,03,15,00,34,33.80
2020,03,15,00,35,24.20
2020,03,15,00,36,19.30
2020,03,15,00,37,27.40
2020,03,15,00,38,32.20
2020,03,15,00,39,40.20
2020,03,15,00,40,45.10
2020,03,15,00,41,20.90
2020,03,15,00,42,22.50
2020,03,15,00,43,48.30
2020,03,15,00,44,12.90
2020,03,15,00,45,24.20
2020,03,15,00,46,16.10
2020,03,15,00,47,19.30
2020,03,15,00,48,22.50
2020,03,15,00,49,25.70
2020,03,15,00,50,22.50
2020,03,15,00,51,22.50
2020,03,15,00,52,19.30
2020,03,15,00,53,11.30
2020,03,15,00,54,25.70
2020,03,15,00,55,22.50
2020,03,15,00,56,19.30
2020,03,15,00,57,16.10
2020,03,15,00,58,33.80
2020,03,15,00,59,38.60
2020,03,15,01,00,25.70
2020,03,15,01,01,17.70
2020,03,15,01,02,25.70
2020,03,15,01,03,24.20
2020,03,15,01,04,37.00
2020,03,15,01,05,35.40
2020,03,15,01,06,19.30
2020,03,15,01,07,11.30
2020,03,15,01,08,9.60
2020,03,15,01,09,22.50
2020,03,15,01,10,27.40
2020,03,15,01,11,32.20
2020,03,15,01,12,14.50
2020,03,15,01,13,17.70
2020,03,15,01,14,25.70
2020,03,15,01,15,40.20
2020,03,15,01,16,38.60
2020,03,15,01,17,22.50
2020,03,15,01,18,20.90
2020,03,15,01,19,37.00
2020,03,15,01,20,17.70
2020,03,15,01,21,14.50
2020,03,15,01,22,11.30
2020,03,15,01,23,25.70
2020,03,15,01,24,22.50
2020,03,15,01,25,25.70
2020,03,15,01,26,11.30
2020,03,15,01,27,16.10
2020,03,15,01,28,12.90
2020,03,15,01,29,30.60
2020,03,15,01,30,19.30
2020,03,15,01,31,4.80
2020,03,15,01,32,22.50
2020,03,15,01,33,24.20
2020,03,15,01,34,20.90
2020,03,15,01,35,37.00
2020,03,15,01,36,35.40
2020,03,15,01,37,17.70
2020,03,15,01,38,22.50
2020,03,15,01,39,17.70
2020,03,15,01,40,30.60
2020,03,15,01,41,37.00
2020,03,15,01,42,14.50
2020,03,15,01,43,11.30
2020,03,15,01,44,22.50
2020,03,15,01,45,20.90
2020,03,15,01,46,16.10
2020,03,15,01,47,12.90
2020,03,15,01,48,24.20
2020,03,15,01,49,30.60
2020,03,15,01,50,30.60
2020,03,15,01,51,29.00
2020,03,15,01,52,19.30
2020,03,15,01,53,6.40
2020,03,15,01,54,6.40
2020,03,15,01,55,19.30
2020,03,15,01,56,40.20
2020,03,15,01,57,20.90
2020,03,15,01,58,6.40
2020,03,15,01,59,20.90
2020,03,15,02,00,9.60
2020,03,15,02,01,27.40
2020,03,15,02,02,20.90
2020,03,15,02,03,8.10
2020,03,15,02,04,16.10
2020,03,15,02,05,25.70
2020,03,15,02,06,24.20
2020,03,15,02,07,19.30
2020,03,15,02,08,24.20
2020,03,15,02,09,4.80
2020,03,15,02,10,8.10
2020,03,15,02,11,4.80
2020,03,15,02,12,25.70
2020,03,15,02,13,22.50
2020,03,15,02,14,16.10
2020,03,15,02,15,16.10
2020,03,15,02,16,24.20
2020,03,15,02,17,14.50
2020,03,15,02,18,14.50
2020,03,15,02,19,24.20
2020,03,15,02,20,32.20
2020,03,15,02,21,14.50
2020,03,15,02,22,16.10
2020,03,15,02,23,9.60
2020,03,15,02,24,22.50
2020,03,15,02,25,32.20
2020,03,15,02,26,40.20
2020,03,15,02,27,22.50
2020,03,15,02,28,11.30
2020,03,15,02,29,33.80
2020,03,15,02,30,35.40
2020,03,15,02,31,38.60
2020,03,15,02,32,17.70
2020,03,15,02,33,9.60
2020,03,15,02,34,9.60
2020,03,15,02,35,17.70
2020,03,15,02,36,20.90
2020,03,15,02,37,9.60
2020,03,15,02,38,22.50
2020,03,15,02,39,19.30
2020,03,15,02,40,35.40
2020,03,15,02,41,19.30
2020,03,15,02,42,11.30
2020,03,15,02,43,16.10
2020,03,15,02,44,8.10
2020,03,15,02,45,9.60
2020,03,15,02,46,17.70
2020,03,15,02,47,11.30
2020,03,15,02,48,22.50
2020,03,15,02,49,20.90
2020,03,15,02,50,11.30
2020,03,15,02,51,14.50
2020,03,15,02,52,24.20
2020,03,15,02,53,9.60
2020,03,15,02,54,14.50
2020,03,15,02,55,17.70
2020,03,15,02,56,22.50
2020,03,15,02,57,14.50
2020,03,15,02,58,17.70
2020,03,15,02,59,11.30
2020,03,15,03,00,9.60
2020,03,15,03,01,14.50
2020,03,15,03,02,19.30
2020,03,15,03,03,14.50
2020,03,15,03,04,19.30
2020,03,15,03,05,8.10
2020,03,15,03,06,19.30
2020,03,15,03,07,25.70
2020,03,15,03,08,14.50
2020,03,15,03,09,16.10
2020,03,15,03,10,11.30
2020,03,15,03,11,27.40
2020,03,15,03,12,20.90
2020,03,15,03,13,29.00
2020,03,15,03,14,22.50
2020,03,15,03,15,9.60
2020,03,15,03,16,20.90
2020,03,15,03,17,20.90
2020,03,15,03,18,9.60
2020,03,15,03,19,12.90
2020,03,15,03,20,12.90
2020,03,15,03,21,22.50
2020,03,15,03,22,8.10
2020,03,15,03,23,22.50
2020,03,15,03,24,16.10
2020,03,15,03,25,4.80
2020,03,15,03,26,4.80
2020,03,15,03,27,8.10
2020,03,15,03,28,22.50
2020,03,15,03,29,16.10
2020,03,15,03,30,19.30
2020,03,15,03,31,12.90
2020,03,15,03,32,9.60
2020,03,15,03,33,14.50
2020,03,15,03,34,24.20
2020,03,15,03,35,17.70
2020,03,15,03,36,30.60
2020,03,15,03,37,17.70
2020,03,15,03,38,22.50
2020,03,15,03,39,27.40
2020,03,15,03,40,17.70
2020,03,15,03,41,22.50
2020,03,15,03,42,16.10
2020,03,15,03,43,14.50
2020,03,15,03,44,9.60
2020,03,15,03,45,11.30
2020,03,15,03,46,8.10
2020,03,15,03,47,14.50
2020,03,15,03,48,27.40
2020,03,15,03,49,11.30
2020,03,15,03,51,12.90
2020,03,15,03,52,9.60
2020,03,15,03,53,9.60
2020,03,15,03,54,6.40
2020,03,15,03,55,19.30
2020,03,15,03,56,16.10
2020,03,15,03,57,14.50
2020,03,15,03,58,9.60
2020,03,15,03,59,14.50
2020,03,15,04,00,12.90
2020,03,15,04,01,14.50
2020,03,15,04,02,17.70
2020,03,15,04,03,19.30
2020,03,15,04,04,14.50
2020,03,15,04,05,29.00
2020,03,15,04,06,9.60
2020,03,15,04,07,11.30
2020,03,15,04,08,4.80
2020,03,15,04,09,14.50
2020,03,15,04,10,27.40
2020,03,15,04,11,17.70
2020,03,15,04,12,6.40
2020,03,15,04,13,16.10
2020,03,15,04,14,20.90
2020,03,15,04,15,22.50
2020,03,15,04,16,11.30
2020,03,15,04,17,11.30
2020,03,15,04,18,19.30
2020,03,15,04,19,11.30
2020,03,15,04,20,11.30
2020,03,15,04,21,17.70
2020,03,15,04,22,11.30
2020,03,15,04,23,19.30
2020,03,15,04,24,11.30
2020,03,15,04,25,16.10
2020,03,15,04,26,17.70
2020,03,15,04,27,17.70
2020,03,15,04,28,17.70
2020,03,15,04,29,17.70
2020,03,15,04,30,19.30
2020,03,15,04,31,11.30
2020,03,15,04,32,8.10
2020,03,15,04,33,20.90
2020,03,15,04,34,11.30
2020,03,15,04,35,11.30
2020,03,15,04,37,19.30
2020,03,15,04,38,25.70
2020,03,15,04,39,6.40
2020,03,15,04,40,24.20
2020,03,15,04,41,9.60
2020,03,15,04,42,17.70
2020,03,15,04,43,22.50
2020,03,15,04,44,24.20
2020,03,15,04,45,19.30
2020,03,15,04,46,20.90
2020,03,15,04,47,19.30
2020,03,15,04,48,25.70
2020,03,15,04,49,16.10
2020,03,15,04,50,14.50
2020,03,15,04,51,6.40
2020,03,15,04,52,4.80
2020,03,15,04,53,22.50
2020,03,15,04,54,20.90
2020,03,15,04,55,22.50
2020,03,15,04,56,22.50
2020,03,15,04,57,16.10
2020,03,15,04,58,16.10
2020,03,15,04,59,25.70
2020,03,15,05,00,20.90
2020,03,15,05,01,8.10
2020,03,15,05,02,8.10
2020,03,15,05,03,27.40
2020,03,15,05,04,32.20
2020,03,15,05,05,17.70
2020,03,15,05,06,20.90
2020,03,15,05,07,16.10
2020,03,15,05,08,17.70
2020,03,15,05,09,17.70
2020,03,15,05,10,19.30
2020,03,15,05,11,19.30
2020,03,15,05,12,19.30
2020,03,15,05,13,16.10
2020,03,15,05,14,20.90
2020,03,15,05,15,14.50
2020,03,15,05,16,19.30
2020,03,15,05,17,11.30
2020,03,15,05,18,16.10
2020,03,15,05,19,6.40
2020,03,15,05,20,14.50
2020,03,15,05,21,14.50
2020,03,15,05,22,11.30
2020,03,15,05,23,4.80
2020,03,15,05,24,17.70
2020,03,15,05,25,17.70
2020,03,15,05,26,8.10
2020,03,15,05,27,1.60
2020,03,15,05,28,19.30
2020,03,15,05,29,19.30
2020,03,15,05,30,11.30
2020,03,15,05,31,22.50
2020,03,15,05,32,14.50
2020,03,15,05,33,8.10
2020,03,15,05,34,11.30
2020,03,15,05,35,1.60
2020,03,15,05,36,14.50
2020,03,15,05,37,9.60
2020,03,15,05,38,6.40
2020,03,15,05,39,4.80
2020,03,15,05,40,8.10
2020,03,15,05,41,9.60
2020,03,15,05,42,6.40
2020,03,15,05,43,6.40
2020,03,15,05,44,4.80
2020,03,15,05,48,3.20
2020,03,15,05,49,4.80
2020,03,15,05,50,12.90
2020,03,15,05,51,4.80
2020,03,15,05,52,8.10
2020,03,15,05,53,11.30
2020,03,15,05,54,8.10
2020,03,15,05,55,6.40
2020,03,15,05,56,4.80
2020,03,15,05,58,4.80
2020,03,15,05,59,6.40
2020,03,15,06,00,6.40
2020,03,15,06,01,6.40
2020,03,15,06,05,4.80
2020,03,15,06,06,4.80
2020,03,15,06,07,1.60
2020,03,15,06,08,11.30
2020,03,15,06,09,12.90
2020,03,15,06,10,6.40
2020,03,15,06,11,3.20
2020,03,15,06,12,4.80
2020,03,15,06,13,3.20
2020,03,15,06,15,4.80
2020,03,15,06,16,6.40
2020,03,15,06,17,16.10
2020,03,15,06,18,22.50
2020,03,15,06,20,3.20
2020,03,15,06,21,8.10
2020,03,15,06,22,6.40
2020,03,15,06,23,6.40
2020,03,15,06,25,1.60
2020,03,15,06,27,6.40
2020,03,15,06,28,6.40
2020,03,15,06,29,6.40
2020,03,15,06,30,9.60
2020,03,15,06,31,4.80
2020,03,15,06,32,6.40
2020,03,15,06,33,4.80
2020,03,15,06,34,4.80
2020,03,15,06,35,4.80
2020,03,15,06,36,11.30
2020,03,15,06,37,3.20
2020,03,15,06,38,17.70
2020,03,15,06,39,17.70
2020,03,15,06,40,16.10
2020,03,15,06,41,20.90
2020,03,15,06,42,25.70
2020,03,15,06,43,20.90
2020,03,15,06,44,4.80
2020,03,15,06,45,12.90
2020,03,15,06,46,8.10
2020,03,15,06,48,6.40
2020,03,15,06,49,6.40
2020,03,15,06,50,6.40
2020,03,15,06,51,16.10
2020,03,15,06,52,16.10
2020,03,15,06,53,6.40
2020,03,15,06,54,11.30
2020,03,15,06,55,14.50
2020,03,15,06,56,4.80
2020,03,15,06,57,4.80
2020,03,15,06,58,11.30
2020,03,15,06,59,14.50
2020,03,15,07,00,12.90
2020,03,15,07,01,19.30
2020,03,15,07,02,16.10
2020,03,15,07,03,3.20
2020,03,15,07,04,19.30
2020,03,15,07,05,11.30
2020,03,15,07,06,9.60
2020,03,15,07,07,19.30
2020,03,15,07,08,3.20
2020,03,15,07,09,3.20
2020,03,15,07,10,14.50
2020,03,15,07,11,14.50
2020,03,15,07,12,11.30
2020,03,15,07,13,9.60
2020,03,15,07,14,16.10
2020,03,15,07,15,4.80
2020,03,15,07,16,19.30
2020,03,15,07,17,16.10
2020,03,15,07,18,17.70
2020,03,15,07,19,17.70
2020,03,15,07,20,4.80
2020,03,15,07,21,4.80
2020,03,15,07,22,4.80
2020,03,15,07,23,8.10
2020,03,15,07,24,11.30
2020,03,15,07,25,17.70
2020,03,15,07,26,9.60
2020,03,15,07,27,14.50
2020,03,15,07,28,12.90
2020,03,15,07,29,11.30
2020,03,15,07,30,14.50
2020,03,15,07,31,6.40
2020,03,15,07,32,9.60
2020,03,15,07,33,19.30
2020,03,15,07,34,30.60
2020,03,15,07,35,22.50
2020,03,15,07,36,14.50
2020,03,15,07,37,25.70
2020,03,15,07,38,9.60
2020,03,15,07,39,11.30
2020,03,15,07,40,9.60
2020,03,15,07,41,4.80
2020,03,15,07,42,8.10
2020,03,15,07,43,11.30
2020,03,15,07,44,20.90
2020,03,15,07,45,17.70
2020,03,15,07,46,11.30
2020,03,15,07,51,6.40
2020,03,15,07,52,9.60
2020,03,15,07,53,6.40
2020,03,15,07,54,11.30
2020,03,15,07,55,1.60
2020,03,15,07,56,3.20
2020,03,15,07,58,3.20
2020,03,15,07,59,4.80
2020,03,15,08,01,4.80
2020,03,15,08,03,9.60
2020,03,15,08,04,8.10
2020,03,15,08,05,4.80
2020,03,15,08,06,4.80
2020,03,15,08,07,8.10
2020,03,15,08,08,3.20
2020,03,15,08,09,1.60
2020,03,15,08,10,6.40
2020,03,15,08,11,8.10
2020,03,15,08,12,9.60
2020,03,15,08,13,6.40
2020,03,15,08,14,8.10
2020,03,15,08,15,9.60
2020,03,15,08,16,8.10
2020,03,15,08,17,8.10
2020,03,15,08,19,8.10
2020,03,15,08,20,4.80
2020,03,15,08,21,4.80
2020,03,15,08,22,8.10
2020,03,15,08,23,6.40
2020,03,15,08,24,8.10
2020,03,15,08,25,4.80
2020,03,15,08,26,3.20
2020,03,15,08,27,4.80
2020,03,15,08,31,12.90
2020,03,15,08,32,17.70
2020,03,15,08,33,1.60
2020,03,15,08,36,1.60
2020,03,15,08,37,1.60
2020,03,15,08,38,6.40
2020,03,15,08,39,3.20
2020,03,15,08,41,3.20
2020,03,15,08,42,3.20
2020,03,15,08,43,22.50
2020,03,15,08,44,22.50
2020,03,15,08,45,3.20
2020,03,15,08,49,3.20
2020,03,15,08,50,1.60
2020,03,15,08,51,4.80
2020,03,15,08,52,3.20
2020,03,15,08,53,4.80
2020,03,15,08,54,6.40
2020,03,15,08,55,8.10
2020,03,15,08,56,14.50
2020,03,15,08,57,12.90
2020,03,15,08,58,4.80
2020,03,15,09,01,9.60
2020,03,15,09,02,9.60
2020,03,15,09,03,6.40
2020,03,15,09,04,9.60
2020,03,15,09,05,6.40
2020,03,15,09,06,6.40
2020,03,15,09,07,9.60
2020,03,15,09,08,4.80
2020,03,15,09,12,3.20
2020,03,15,09,13,8.10
2020,03,15,09,14,9.60
2020,03,15,09,15,11.30
2020,03,15,09,16,11.30
2020,03,15,09,17,11.30
2020,03,15,09,18,11.30
2020,03,15,09,19,16.10
2020,03,15,09,20,6.40
2020,03,15,09,21,1.60
2020,03,15,09,22,4.80
2020,03,15,09,23,4.80
2020,03,15,09,24,8.10
2020,03,15,09,25,8.10
2020,03,15,09,26,1.60
2020,03,15,09,27,6.40
2020,03,15,09,29,6.40
2020,03,15,09,30,8.10
2020,03,15,09,31,8.10
2020,03,15,09,32,6.40
2020,03,15,09,33,8.10
2020,03,15,09,34,8.10
2020,03,15,09,35,6.40
2020,03,15,09,36,1.60
2020,03,15,09,37,1.60
2020,03,15,09,38,9.60
2020,03,15,09,39,9.60
2020,03,15,09,40,11.30
2020,03,15,09,41,11.30
2020,03,15,09,42,4.80
2020,03,15,09,43,1.60
2020,03,15,09,44,8.10
2020,03,15,09,45,27.40
2020,03,15,09,46,14.50
2020,03,15,09,47,8.10
2020,03,15,09,48,11.30
2020,03,15,09,49,1.60
2020,03,15,09,50,4.80
2020,03,15,09,51,6.40
2020,03,15,09,52,3.20
2020,03,15,09,53,8.10
2020,03,15,09,54,9.60
2020,03,15,09,55,14.50
2020,03,15,09,56,19.30
2020,03,15,09,57,8.10
2020,03,15,09,58,8.10
2020,03,15,09,59,8.10
2020,03,15,10,00,6.40
2020,03,15,10,01,11.30
2020,03,15,10,02,16.10
2020,03,15,10,03,8.10
2020,03,15,10,04,19.30
2020,03,15,10,05,14.50
2020,03,15,10,06,8.10
2020,03,15,10,07,1.60
2020,03,15,10,08,11.30
2020,03,15,10,09,11.30
2020,03,15,10,10,9.60
2020,03,15,10,11,6.40
2020,03,15,10,12,3.20
2020,03,15,10,13,8.10
2020,03,15,10,14,17.70
2020,03,15,10,15,9.60
2020,03,15,10,16,8.10
2020,03,15,10,17,17.70
2020,03,15,10,18,16.10
2020,03,15,10,19,11.30
2020,03,15,10,20,6.40
2020,03,15,10,21,9.60
2020,03,15,10,22,6.40
2020,03,15,10,23,14.50
2020,03,15,10,24,8.10
2020,03,15,10,25,11.30
2020,03,15,10,26,9.60
2020,03,15,10,27,27.40
2020,03,15,10,28,11.30
2020,03,15,10,29,8.10
2020,03,15,10,30,4.80
2020,03,15,10,31,11.30
2020,03,15,10,32,19.30
2020,03,15,10,33,11.30
2020,03,15,10,34,9.60
2020,03,15,10,35,11.30
2020,03,15,10,36,11.30
2020,03,15,10,37,14.50
2020,03,15,10,38,6.40
2020,03,15,10,39,9.60
2020,03,15,10,40,6.40
2020,03,15,10,41,1.60
2020,03,15,10,42,4.80
2020,03,15,10,43,11.30
2020,03,15,10,44,12.90
2020,03,15,10,45,9.60
2020,03,15,10,46,11.30
2020,03,15,10,47,9.60
2020,03,15,10,48,17.70
2020,03,15,10,49,9.60
2020,03,15,10,50,8.10
2020,03,15,10,51,11.30
2020,03,15,10,52,6.40
2020,03,15,10,53,6.40
2020,03,15,10,54,8.10
2020,03,15,10,55,11.30
2020,03,15,10,56,11.30
2020,03,15,10,57,9.60
2020,03,15,10,58,6.40
2020,03,15,10,59,4.80
2020,03,15,11,00,11.30
2020,03,15,11,01,6.40
2020,03,15,11,02,8.10
2020,03,15,11,03,9.60
2020,03,15,11,04,9.60
2020,03,15,11,05,8.10
2020,03,15,11,06,8.10
2020,03,15,11,07,6.40
2020,03,15,11,08,17.70
2020,03,15,11,09,8.10
2020,03,15,11,10,27.40
2020,03,15,11,11,19.30
2020,03,15,11,12,16.10
2020,03,15,11,13,6.40
2020,03,15,11,14,6.40
2020,03,15,11,15,9.60
2020,03,15,11,16,9.60
2020,03,15,11,17,8.10
2020,03,15,11,18,3.20
2020,03,15,11,20,8.10
2020,03,15,11,21,11.30
2020,03,15,11,22,6.40
2020,03,15,11,23,14.50
2020,03,15,11,24,9.60
2020,03,15,11,25,4.80
2020,03,15,11,26,17.70
2020,03,15,11,27,4.80
2020,03,15,11,28,11.30
2020,03,15,11,29,19.30
2020,03,15,11,30,4.80
2020,03,15,11,31,4.80
2020,03,15,11,32,3.20
2020,03,15,11,33,14.50
2020,03,15,11,34,9.60
2020,03,15,11,36,6.40
2020,03,15,11,37,3.20
2020,03,15,11,38,4.80
2020,03,15,11,39,12.90
2020,03,15,11,40,1.60
2020,03,15,11,41,8.10
2020,03,15,11,42,6.40
2020,03,15,11,43,4.80
2020,03,15,11,44,4.80
2020,03,15,11,45,6.40
2020,03,15,11,46,6.40
2020,03,15,11,47,4.80
2020,03,15,11,48,4.80
2020,03,15,11,49,1.60
2020,03,15,11,50,4.80
2020,03,15,11,51,3.20
2020,03,15,11,52,3.20
2020,03,15,11,53,4.80
2020,03,15,11,54,14.50
2020,03,15,11,55,14.50
2020,03,15,11,56,6.40
2020,03,15,11,57,8.10
2020,03,15,11,58,9.60
2020,03,15,11,59,9.60
2020,03,15,12,00,12.90
2020,03,15,12,01,6.40
2020,03,15,12,02,12.90
2020,03,15,12,03,17.70
2020,03,15,12,04,9.60
2020,03,15,12,05,4.80
2020,03,15,12,06,3.20
2020,03,15,12,07,8.10
2020,03,15,12,08,9.60
2020,03,15,12,09,9.60
2020,03,15,12,10,9.60
2020,03,15,12,11,11.30
2020,03,15,12,12,3.20
2020,03,15,12,13,9.60
2020,03,15,12,14,16.10
2020,03,15,12,15,4.80
2020,03,15,12,16,14.50
2020,03,15,12,17,12.90
2020,03,15,12,18,19.30
2020,03,15,12,19,14.50
2020,03,15,12,20,9.60
2020,03,15,12,21,11.30
2020,03,15,12,22,6.40
2020,03,15,12,23,9.60
2020,03,15,12,24,8.10
2020,03,15,12,26,9.60
2020,03,15,12,27,4.80
2020,03,15,12,28,11.30
2020,03,15,12,29,4.80
2020,03,15,12,30,1.60
2020,03,15,12,31,11.30
2020,03,15,12,32,11.30
2020,03,15,12,33,16.10
2020,03,15,12,34,6.40
2020,03,15,12,35,6.40
2020,03,15,12,36,16.10
2020,03,15,12,37,3.20
2020,03,15,12,39,8.10
2020,03,15,12,40,4.80
2020,03,15,12,41,8.10
2020,03,15,12,43,9.60
2020,03,15,12,44,9.60
2020,03,15,12,45,8.10
2020,03,15,12,46,9.60
2020,03,15,12,47,4.80
2020,03,15,12,48,9.60
2020,03,15,12,49,9.60
2020,03,15,12,50,8.10
2020,03,15,12,51,3.20
2020,03,15,12,52,6.40
2020,03,15,12,53,14.50
2020,03,15,12,54,14.50
2020,03,15,12,55,8.10
2020,03,15,12,56,4.80
2020,03,15,12,57,9.60
2020,03,15,12,58,16.10
2020,03,15,12,59,9.60
2020,03,15,13,00,11.30
2020,03,15,13,01,16.10
2020,03,15,13,02,4.80
2020,03,15,13,03,8.10
2020,03,15,13,04,8.10
2020,03,15,13,05,1.60
2020,03,15,13,06,3.20
2020,03,15,13,07,3.20
2020,03,15,13,08,3.20
2020,03,15,13,09,16.10
2020,03,15,13,10,14.50
2020,03,15,13,11,9.60
2020,03,15,13,12,1.60
2020,03,15,13,13,3.20
2020,03,15,13,14,1.60
2020,03,15,13,16,9.60
2020,03,15,13,17,11.30
2020,03,15,13,18,6.40
2020,03,15,13,20,3.20
2020,03,15,13,21,4.80
2020,03,15,13,22,8.10
2020,03,15,13,23,4.80
2020,03,15,13,24,3.20
2020,03,15,13,25,6.40
2020,03,15,13,26,4.80
2020,03,15,13,27,1.60
2020,03,15,13,28,8.10
2020,03,15,13,29,6.40
2020,03,15,13,30,11.30
2020,03,15,13,31,3.20
2020,03,15,13,33,11.30
2020,03,15,13,34,16.10
2020,03,15,13,35,9.60
2020,03,15,13,36,4.80
2020,03,15,13,37,9.60
2020,03,15,13,38,4.80
2020,03,15,13,39,3.20
2020,03,15,13,40,19.30
2020,03,15,13,41,22.50
2020,03,15,13,42,4.80
2020,03,15,13,43,1.60
2020,03,15,13,44,6.40
2020,03,15,13,45,8.10
2020,03,15,13,46,8.10
2020,03,15,13,47,8.10
2020,03,15,13,48,8.10
2020,03,15,13,49,3.20
2020,03,15,13,50,6.40
2020,03,15,13,51,1.60
2020,03,15,13,52,8.10
2020,03,15,13,53,1.60
2020,03,15,13,54,12.90
2020,03,15,13,55,8.10
2020,03,15,13,56,6.40
2020,03,15,13,57,6.40
2020,03,15,13,58,14.50
2020,03,15,14,00,4.80
2020,03,15,14,01,1.60
2020,03,15,14,02,4.80
2020,03,15,14,03,4.80
2020,03,15,14,04,4.80
2020,03,15,14,05,9.60
2020,03,15,14,06,4.80
2020,03,15,14,07,9.60
2020,03,15,14,08,6.40
2020,03,15,14,09,1.60
2020,03,15,14,10,3.20
2020,03,15,14,12,3.20
2020,03,15,14,13,4.80
2020,03,15,14,14,8.10
2020,03,15,14,15,3.20
2020,03,15,14,16,8.10
2020,03,15,14,17,1.60
2020,03,15,14,18,6.40
2020,03,15,14,19,1.60
2020,03,15,14,20,1.60
2020,03,15,14,21,3.20
2020,03,15,14,22,4.80
2020,03,15,14,23,11.30
2020,03,15,14,24,4.80
2020,03,15,14,25,4.80
2020,03,15,14,26,1.60
2020,03,15,14,27,6.40
2020,03,15,14,28,9.60
2020,03,15,14,29,11.30
2020,03,15,14,30,14.50
2020,03,15,14,31,11.30
2020,03,15,14,32,4.80
2020,03,15,14,33,3.20
2020,03,15,14,34,3.20
2020,03,15,14,35,4.80
2020,03,15,14,36,6.40
2020,03,15,14,37,3.20
2020,03,15,14,38,14.50
2020,03,15,14,39,6.40
2020,03,15,14,40,1.60
2020,03,15,14,41,4.80
2020,03,15,14,42,11.30
2020,03,15,14,43,9.60
2020,03,15,14,44,8.10
2020,03,15,14,45,4.80
2020,03,15,14,46,3.20
2020,03,15,14,47,4.80
2020,03,15,14,48,9.60
2020,03,15,14,49,6.40
2020,03,15,14,50,8.10
2020,03,15,14,51,6.40
2020,03,15,14,52,6.40
2020,03,15,14,53,14.50
2020,03,15,14,55,4.80
2020,03,15,14,56,6.40
2020,03,15,14,58,1.60
2020,03,15,14,59,17.70
2020,03,15,15,00,11.30
2020,03,15,15,01,6.40
2020,03,15,15,02,6.40
2020,03,15,15,03,8.10
2020,03,15,15,04,17.70
2020,03,15,15,05,17.70
2020,03,15,15,06,6.40
2020,03,15,15,07,6.40
2020,03,15,15,08,1.60
2020,03,15,15,09,6.40
2020,03,15,15,10,1.60
2020,03,15,15,11,8.10
2020,03,15,15,12,16.10
2020,03,15,15,13,14.50
2020,03,15,15,14,3.20
2020,03,15,15,15,3.20
2020,03,15,15,16,4.80
2020,03,15,15,17,3.20
2020,03,15,15,18,4.80
2020,03,15,15,19,1.60
2020,03,15,15,20,6.40
2020,03,15,15,21,4.80
2020,03,15,15,22,4.80
2020,03,15,15,23,3.20
2020,03,15,15,24,16.10
2020,03,15,15,25,9.60
2020,03,15,15,26,1.60
2020,03,15,15,27,4.80
2020,03,15,15,28,1.60
2020,03,15,15,29,8.10
2020,03,15,15,30,17.70
2020,03,15,15,31,14.50
2020,03,15,15,32,11.30
2020,03,15,15,33,6.40
2020,03,15,15,34,3.20
2020,03,15,15,35,3.20
2020,03,15,15,36,6.40
2020,03,15,15,37,3.20
2020,03,15,15,38,1.60
2020,03,15,15,39,4.80
2020,03,15,15,40,3.20
2020,03,15,15,41,8.10
2020,03,15,15,42,6.40
2020,03,15,15,43,9.60
2020,03,15,15,44,14.50
2020,03,15,15,45,8.10
2020,03,15,15,46,9.60
2020,03,15,15,47,8.10
2020,03,15,15,48,9.60
2020,03,15,15,49,6.40
2020,03,15,15,52,8.10
2020,03,15,15,53,16.10
2020,03,15,15,54,16.10
2020,03,15,15,55,14.50
2020,03,15,15,56,9.60
2020,03,15,15,57,6.40
2020,03,15,15,59,11.30
2020,03,15,16,00,14.50
2020,03,15,16,01,16.10
2020,03,15,16,02,6.40
2020,03,15,16,03,11.30
2020,03,15,16,04,17.70
2020,03,15,16,05,14.50
2020,03,15,16,06,1.60
2020,03,15,16,07,1.60
2020,03,15,16,08,1.60
2020,03,15,16,09,1.60
2020,03,15,16,10,9.60
2020,03,15,16,11,1.60
2020,03,15,16,12,4.80
2020,03,15,16,13,1.60
2020,03,15,16,14,3.20
2020,03,15,16,15,8.10
2020,03,15,16,16,16.10
2020,03,15,16,17,6.40
2020,03,15,16,18,4.80
2020,03,15,16,19,4.80
2020,03,15,16,22,17.70
2020,03,15,16,23,14.50
2020,03,15,16,24,1.60
2020,03,15,16,25,4.80
2020,03,15,16,26,6.40
2020,03,15,16,27,6.40
2020,03,15,16,28,6.40
2020,03,15,16,30,1.60
2020,03,15,16,31,1.60
2020,03,15,16,32,11.30
2020,03,15,16,33,3.20
2020,03,15,16,34,8.10
2020,03,15,16,35,8.10
2020,03,15,16,36,9.60
2020,03,15,16,37,1.60
2020,03,15,16,38,1.60
2020,03,15,16,39,11.30
2020,03,15,16,40,14.50
2020,03,15,16,41,8.10
2020,03,15,16,42,8.10
2020,03,15,16,43,1.60
2020,03,15,16,44,17.70
2020,03,15,16,45,17.70
2020,03,15,16,47,6.40
2020,03,15,16,48,3.20
2020,03,15,16,49,16.10
2020,03,15,16,50,6.40
2020,03,15,16,51,11.30
2020,03,15,16,52,9.60
2020,03,15,16,53,4.80
2020,03,15,16,54,3.20
2020,03,15,16,55,8.10
2020,03,15,16,56,9.60
2020,03,15,16,57,3.20
2020,03,15,16,59,1.60
2020,03,15,17,00,11.30
2020,03,15,17,01,8.10
2020,03,15,17,02,4.80
2020,03,15,17,03,1.60
2020,03,15,17,04,6.40
2020,03,15,17,05,16.10
2020,03,15,17,06,3.20
2020,03,15,17,07,3.20
2020,03,15,17,08,3.20
2020,03,15,17,09,3.20
2020,03,15,17,10,6.40
2020,03,15,17,11,3.20
2020,03,15,17,12,9.60
2020,03,15,17,13,1.60
2020,03,15,17,14,8.10
2020,03,15,17,15,4.80
2020,03,15,17,16,6.40
2020,03,15,17,17,3.20
2020,03,15,17,18,8.10
2020,03,15,17,19,17.70
2020,03,15,17,20,6.40
2020,03,15,17,21,8.10
2020,03,15,17,22,3.20
2020,03,15,17,23,8.10
2020,03,15,17,24,6.40
2020,03,15,17,25,8.10
2020,03,15,17,26,6.40
2020,03,15,17,28,4.80
2020,03,15,17,29,6.40
2020,03,15,17,30,4.80
2020,03,15,17,31,3.20
2020,03,15,17,32,4.80
2020,03,15,17,33,1.60
2020,03,15,17,34,1.60
2020,03,15,17,35,6.40
2020,03,15,17,36,6.40
2020,03,15,17,38,1.60
2020,03,15,17,39,8.10
2020,03,15,17,40,9.60
2020,03,15,17,41,8.10
2020,03,15,17,42,3.20
2020,03,15,17,43,6.40
2020,03,15,17,44,8.10
2020,03,15,17,45,8.10
2020,03,15,17,46,6.40
2020,03,15,17,47,6.40
2020,03,15,17,48,11.30
2020,03,15,17,49,8.10
2020,03,15,17,50,4.80
2020,03,15,17,51,8.10
2020,03,15,17,52,4.80
2020,03,15,17,53,1.60
2020,03,15,17,54,3.20
2020,03,15,17,55,4.80
2020,03,15,17,56,6.40
2020,03,15,17,59,1.60
2020,03,15,18,00,6.40
2020,03,15,18,01,9.60
2020,03,15,18,02,8.10
2020,03,15,18,03,3.20
2020,03,15,18,04,9.60
2020,03,15,18,05,11.30
2020,03,15,18,06,4.80
2020,03,15,18,07,8.10
2020,03,15,18,08,1.60
2020,03,15,18,09,6.40
2020,03,15,18,10,6.40
2020,03,15,18,12,4.80
2020,03,15,18,13,6.40
2020,03,15,18,14,1.60
2020,03,15,18,16,4.80
2020,03,15,18,19,1.60
2020,03,15,18,20,6.40
2020,03,15,18,21,4.80
2020,03,15,18,22,4.80
2020,03,15,18,23,1.60
2020,03,15,18,26,1.60
2020,03,15,18,34,1.60
2020,03,15,18,35,4.80
2020,03,15,18,36,3.20
2020,03,15,18,40,3.20
2020,03,15,18,44,3.20
2020,03,15,18,48,3.20
2020,03,15,18,49,3.20
2020,03,15,18,51,3.20
2020,03,15,18,52,6.40
2020,03,15,18,53,6.40
2020,03,15,18,55,4.80
2020,03,15,18,56,6.40
2020,03,15,18,57,3.20
2020,03,15,18,58,3.20
2020,03,15,19,01,4.80
2020,03,15,19,02,4.80
2020,03,15,19,03,1.60
2020,03,15,19,04,11.30
2020,03,15,19,05,4.80
2020,03,15,19,10,1.60
2020,03,15,19,11,4.80
2020,03,15,19,12,4.80
2020,03,15,19,13,4.80
2020,03,15,19,14,1.60
2020,03,15,19,18,3.20
2020,03,15,19,19,4.80